Index of /20260428/WXO-DD/model_caps/3km/00/036
Name Last modified Size Description
Parent Directory -
20260428T00Z_MSC_CAPS_AbsoluteVorticity_IsbL-0250_RLatLon0.03_PT036H.grib2 2026-04-28 06:17 1.0M
20260428T00Z_MSC_CAPS_AbsoluteVorticity_IsbL-0500_RLatLon0.03_PT036H.grib2 2026-04-28 06:17 1.1M
20260428T00Z_MSC_CAPS_AbsoluteVorticity_IsbL-0700_RLatLon0.03_PT036H.grib2 2026-04-28 06:17 1.2M
20260428T00Z_MSC_CAPS_AbsoluteVorticity_IsbL-0850_RLatLon0.03_PT036H.grib2 2026-04-28 06:17 1.2M
20260428T00Z_MSC_CAPS_AbsoluteVorticity_IsbL-1000_RLatLon0.03_PT036H.grib2 2026-04-28 06:17 1.4M
20260428T00Z_MSC_CAPS_AirDensity_AGL-120m_RLatLon0.03_PT036H.grib2 2026-04-28 06:17 1.4M
20260428T00Z_MSC_CAPS_AirDensity_AGL-40m_RLatLon0.03_PT036H.grib2 2026-04-28 06:17 1.4M
20260428T00Z_MSC_CAPS_AirDensity_AGL-80m_RLatLon0.03_PT036H.grib2 2026-04-28 06:17 1.4M
20260428T00Z_MSC_CAPS_AirTemp_AGL-120m_RLatLon0.03_PT036H.grib2 2026-04-28 06:17 1.4M
20260428T00Z_MSC_CAPS_AirTemp_AGL-2m_RLatLon0.03_PT036H.grib2 2026-04-28 06:17 1.7M
20260428T00Z_MSC_CAPS_AirTemp_AGL-40m_RLatLon0.03_PT036H.grib2 2026-04-28 06:17 1.5M
20260428T00Z_MSC_CAPS_AirTemp_AGL-80m_RLatLon0.03_PT036H.grib2 2026-04-28 06:17 1.4M
20260428T00Z_MSC_CAPS_AirTemp_IsbL-0050_RLatLon0.03_PT036H.grib2 2026-04-28 06:17 691K
20260428T00Z_MSC_CAPS_AirTemp_IsbL-0100_RLatLon0.03_PT036H.grib2 2026-04-28 06:17 963K
20260428T00Z_MSC_CAPS_AirTemp_IsbL-0150_RLatLon0.03_PT036H.grib2 2026-04-28 06:17 755K
20260428T00Z_MSC_CAPS_AirTemp_IsbL-0175_RLatLon0.03_PT036H.grib2 2026-04-28 06:17 774K
20260428T00Z_MSC_CAPS_AirTemp_IsbL-0200_RLatLon0.03_PT036H.grib2 2026-04-28 06:17 791K
20260428T00Z_MSC_CAPS_AirTemp_IsbL-0225_RLatLon0.03_PT036H.grib2 2026-04-28 06:17 789K
20260428T00Z_MSC_CAPS_AirTemp_IsbL-0250_RLatLon0.03_PT036H.grib2 2026-04-28 06:17 783K
20260428T00Z_MSC_CAPS_AirTemp_IsbL-0275_RLatLon0.03_PT036H.grib2 2026-04-28 06:17 1.0M
20260428T00Z_MSC_CAPS_AirTemp_IsbL-0300_RLatLon0.03_PT036H.grib2 2026-04-28 06:17 1.0M
20260428T00Z_MSC_CAPS_AirTemp_IsbL-0350_RLatLon0.03_PT036H.grib2 2026-04-28 06:17 1.0M
20260428T00Z_MSC_CAPS_AirTemp_IsbL-0400_RLatLon0.03_PT036H.grib2 2026-04-28 06:17 750K
20260428T00Z_MSC_CAPS_AirTemp_IsbL-0450_RLatLon0.03_PT036H.grib2 2026-04-28 06:17 765K
20260428T00Z_MSC_CAPS_AirTemp_IsbL-0500_RLatLon0.03_PT036H.grib2 2026-04-28 06:17 783K
20260428T00Z_MSC_CAPS_AirTemp_IsbL-0550_RLatLon0.03_PT036H.grib2 2026-04-28 06:17 796K
20260428T00Z_MSC_CAPS_AirTemp_IsbL-0600_RLatLon0.03_PT036H.grib2 2026-04-28 06:17 811K
20260428T00Z_MSC_CAPS_AirTemp_IsbL-0650_RLatLon0.03_PT036H.grib2 2026-04-28 06:17 837K
20260428T00Z_MSC_CAPS_AirTemp_IsbL-0700_RLatLon0.03_PT036H.grib2 2026-04-28 06:17 1.0M
20260428T00Z_MSC_CAPS_AirTemp_IsbL-0750_RLatLon0.03_PT036H.grib2 2026-04-28 06:17 1.0M
20260428T00Z_MSC_CAPS_AirTemp_IsbL-0800_RLatLon0.03_PT036H.grib2 2026-04-28 06:17 1.0M
20260428T00Z_MSC_CAPS_AirTemp_IsbL-0850_RLatLon0.03_PT036H.grib2 2026-04-28 06:17 1.1M
20260428T00Z_MSC_CAPS_AirTemp_IsbL-0875_RLatLon0.03_PT036H.grib2 2026-04-28 06:17 1.1M
20260428T00Z_MSC_CAPS_AirTemp_IsbL-0900_RLatLon0.03_PT036H.grib2 2026-04-28 06:17 1.1M
20260428T00Z_MSC_CAPS_AirTemp_IsbL-0925_RLatLon0.03_PT036H.grib2 2026-04-28 06:17 1.2M
20260428T00Z_MSC_CAPS_AirTemp_IsbL-0950_RLatLon0.03_PT036H.grib2 2026-04-28 06:17 1.2M
20260428T00Z_MSC_CAPS_AirTemp_IsbL-0970_RLatLon0.03_PT036H.grib2 2026-04-28 06:17 1.2M
20260428T00Z_MSC_CAPS_AirTemp_IsbL-0985_RLatLon0.03_PT036H.grib2 2026-04-28 06:17 1.0M
20260428T00Z_MSC_CAPS_AirTemp_IsbL-1000_RLatLon0.03_PT036H.grib2 2026-04-28 06:17 1.0M
20260428T00Z_MSC_CAPS_AirTemp_IsbL-1015_RLatLon0.03_PT036H.grib2 2026-04-28 06:17 1.1M
20260428T00Z_MSC_CAPS_Albedo_Sfc_RLatLon0.03_PT036H.grib2 2026-04-28 06:17 2.7M
20260428T00Z_MSC_CAPS_CAPE_Sfc_RLatLon0.03_PT036H.grib2 2026-04-28 06:17 59K
20260428T00Z_MSC_CAPS_CloudWater_EAtm_RLatLon0.03_PT036H.grib2 2026-04-28 06:17 1.4M
20260428T00Z_MSC_CAPS_ConvectivePrecip-Accum_Sfc_RLatLon0.03_PT036H.grib2 2026-04-28 06:17 4.2M
20260428T00Z_MSC_CAPS_DewPointDepression_AGL-120m_RLatLon0.03_PT036H.grib2 2026-04-28 06:17 2.0M
20260428T00Z_MSC_CAPS_DewPointDepression_AGL-2m_RLatLon0.03_PT036H.grib2 2026-04-28 06:17 2.1M
20260428T00Z_MSC_CAPS_DewPointDepression_AGL-40m_RLatLon0.03_PT036H.grib2 2026-04-28 06:17 2.1M
20260428T00Z_MSC_CAPS_DewPointDepression_AGL-80m_RLatLon0.03_PT036H.grib2 2026-04-28 06:17 2.1M
20260428T00Z_MSC_CAPS_DewPointDepression_IsbL-0050_RLatLon0.03_PT036H.grib2 2026-04-28 06:17 1.9K
20260428T00Z_MSC_CAPS_DewPointDepression_IsbL-0100_RLatLon0.03_PT036H.grib2 2026-04-28 06:17 138K
20260428T00Z_MSC_CAPS_DewPointDepression_IsbL-0150_RLatLon0.03_PT036H.grib2 2026-04-28 06:17 148K
20260428T00Z_MSC_CAPS_DewPointDepression_IsbL-0175_RLatLon0.03_PT036H.grib2 2026-04-28 06:17 210K
20260428T00Z_MSC_CAPS_DewPointDepression_IsbL-0200_RLatLon0.03_PT036H.grib2 2026-04-28 06:17 392K
20260428T00Z_MSC_CAPS_DewPointDepression_IsbL-0225_RLatLon0.03_PT036H.grib2 2026-04-28 06:17 705K
20260428T00Z_MSC_CAPS_DewPointDepression_IsbL-0250_RLatLon0.03_PT036H.grib2 2026-04-28 06:17 895K
20260428T00Z_MSC_CAPS_DewPointDepression_IsbL-0275_RLatLon0.03_PT036H.grib2 2026-04-28 06:17 1.0M
20260428T00Z_MSC_CAPS_DewPointDepression_IsbL-0300_RLatLon0.03_PT036H.grib2 2026-04-28 06:17 1.1M
20260428T00Z_MSC_CAPS_DewPointDepression_IsbL-0350_RLatLon0.03_PT036H.grib2 2026-04-28 06:17 1.1M
20260428T00Z_MSC_CAPS_DewPointDepression_IsbL-0400_RLatLon0.03_PT036H.grib2 2026-04-28 06:17 1.1M
20260428T00Z_MSC_CAPS_DewPointDepression_IsbL-0450_RLatLon0.03_PT036H.grib2 2026-04-28 06:17 1.2M
20260428T00Z_MSC_CAPS_DewPointDepression_IsbL-0500_RLatLon0.03_PT036H.grib2 2026-04-28 06:17 1.2M
20260428T00Z_MSC_CAPS_DewPointDepression_IsbL-0550_RLatLon0.03_PT036H.grib2 2026-04-28 06:17 1.2M
20260428T00Z_MSC_CAPS_DewPointDepression_IsbL-0600_RLatLon0.03_PT036H.grib2 2026-04-28 06:17 1.3M
20260428T00Z_MSC_CAPS_DewPointDepression_IsbL-0650_RLatLon0.03_PT036H.grib2 2026-04-28 06:17 1.3M
20260428T00Z_MSC_CAPS_DewPointDepression_IsbL-0700_RLatLon0.03_PT036H.grib2 2026-04-28 06:17 1.3M
20260428T00Z_MSC_CAPS_DewPointDepression_IsbL-0750_RLatLon0.03_PT036H.grib2 2026-04-28 06:17 1.3M
20260428T00Z_MSC_CAPS_DewPointDepression_IsbL-0800_RLatLon0.03_PT036H.grib2 2026-04-28 06:17 1.3M
20260428T00Z_MSC_CAPS_DewPointDepression_IsbL-0850_RLatLon0.03_PT036H.grib2 2026-04-28 06:17 1.3M
20260428T00Z_MSC_CAPS_DewPointDepression_IsbL-0875_RLatLon0.03_PT036H.grib2 2026-04-28 06:17 1.3M
20260428T00Z_MSC_CAPS_DewPointDepression_IsbL-0900_RLatLon0.03_PT036H.grib2 2026-04-28 06:17 1.4M
20260428T00Z_MSC_CAPS_DewPointDepression_IsbL-0925_RLatLon0.03_PT036H.grib2 2026-04-28 06:17 1.4M
20260428T00Z_MSC_CAPS_DewPointDepression_IsbL-0950_RLatLon0.03_PT036H.grib2 2026-04-28 06:17 1.4M
20260428T00Z_MSC_CAPS_DewPointDepression_IsbL-0970_RLatLon0.03_PT036H.grib2 2026-04-28 06:17 1.3M
20260428T00Z_MSC_CAPS_DewPointDepression_IsbL-0985_RLatLon0.03_PT036H.grib2 2026-04-28 06:17 1.3M
20260428T00Z_MSC_CAPS_DewPointDepression_IsbL-1000_RLatLon0.03_PT036H.grib2 2026-04-28 06:17 1.3M
20260428T00Z_MSC_CAPS_DewPointDepression_IsbL-1015_RLatLon0.03_PT036H.grib2 2026-04-28 06:17 1.3M
20260428T00Z_MSC_CAPS_DewPoint_AGL-120m_RLatLon0.03_PT036H.grib2 2026-04-28 06:17 3.6M
20260428T00Z_MSC_CAPS_DewPoint_AGL-2m_RLatLon0.03_PT036H.grib2 2026-04-28 06:17 1.8M
20260428T00Z_MSC_CAPS_DewPoint_AGL-40m_RLatLon0.03_PT036H.grib2 2026-04-28 06:17 3.7M
20260428T00Z_MSC_CAPS_DewPoint_AGL-80m_RLatLon0.03_PT036H.grib2 2026-04-28 06:17 3.7M
20260428T00Z_MSC_CAPS_DownwardLongwaveRadiationFlux-Accum_Sfc_RLatLon0.03_PT036H.grib2 2026-04-28 06:17 2.5M
20260428T00Z_MSC_CAPS_DownwardShortwaveRadiationFlux-Accum_NTAtm_RLatLon0.03_PT036H.grib2 2026-04-28 06:17 498K
20260428T00Z_MSC_CAPS_DownwardShortwaveRadiationFlux-Accum_Sfc_RLatLon0.03_PT036H.grib2 2026-04-28 06:17 2.7M
20260428T00Z_MSC_CAPS_FreezingRain-Accum_Sfc_RLatLon0.03_PT036H.grib2 2026-04-28 06:17 1.0M
20260428T00Z_MSC_CAPS_GeopotentialHeight_IsbL-0050_RLatLon0.03_PT036H.grib2 2026-04-28 06:17 642K
20260428T00Z_MSC_CAPS_GeopotentialHeight_IsbL-0100_RLatLon0.03_PT036H.grib2 2026-04-28 06:17 768K
20260428T00Z_MSC_CAPS_GeopotentialHeight_IsbL-0150_RLatLon0.03_PT036H.grib2 2026-04-28 06:17 729K
20260428T00Z_MSC_CAPS_GeopotentialHeight_IsbL-0175_RLatLon0.03_PT036H.grib2 2026-04-28 06:17 740K
20260428T00Z_MSC_CAPS_GeopotentialHeight_IsbL-0200_RLatLon0.03_PT036H.grib2 2026-04-28 06:17 746K
20260428T00Z_MSC_CAPS_GeopotentialHeight_IsbL-0225_RLatLon0.03_PT036H.grib2 2026-04-28 06:17 756K
20260428T00Z_MSC_CAPS_GeopotentialHeight_IsbL-0250_RLatLon0.03_PT036H.grib2 2026-04-28 06:17 763K
20260428T00Z_MSC_CAPS_GeopotentialHeight_IsbL-0275_RLatLon0.03_PT036H.grib2 2026-04-28 06:17 771K
20260428T00Z_MSC_CAPS_GeopotentialHeight_IsbL-0300_RLatLon0.03_PT036H.grib2 2026-04-28 06:17 776K
20260428T00Z_MSC_CAPS_GeopotentialHeight_IsbL-0350_RLatLon0.03_PT036H.grib2 2026-04-28 06:17 779K
20260428T00Z_MSC_CAPS_GeopotentialHeight_IsbL-0400_RLatLon0.03_PT036H.grib2 2026-04-28 06:17 771K
20260428T00Z_MSC_CAPS_GeopotentialHeight_IsbL-0450_RLatLon0.03_PT036H.grib2 2026-04-28 06:17 761K
20260428T00Z_MSC_CAPS_GeopotentialHeight_IsbL-0500_RLatLon0.03_PT036H.grib2 2026-04-28 06:17 751K
20260428T00Z_MSC_CAPS_GeopotentialHeight_IsbL-0550_RLatLon0.03_PT036H.grib2 2026-04-28 06:17 747K
20260428T00Z_MSC_CAPS_GeopotentialHeight_IsbL-0600_RLatLon0.03_PT036H.grib2 2026-04-28 06:17 632K
20260428T00Z_MSC_CAPS_GeopotentialHeight_IsbL-0650_RLatLon0.03_PT036H.grib2 2026-04-28 06:17 632K
20260428T00Z_MSC_CAPS_GeopotentialHeight_IsbL-0700_RLatLon0.03_PT036H.grib2 2026-04-28 06:17 803K
20260428T00Z_MSC_CAPS_GeopotentialHeight_IsbL-0750_RLatLon0.03_PT036H.grib2 2026-04-28 06:17 802K
20260428T00Z_MSC_CAPS_GeopotentialHeight_IsbL-0800_RLatLon0.03_PT036H.grib2 2026-04-28 06:17 808K
20260428T00Z_MSC_CAPS_GeopotentialHeight_IsbL-0850_RLatLon0.03_PT036H.grib2 2026-04-28 06:17 896K
20260428T00Z_MSC_CAPS_GeopotentialHeight_IsbL-0875_RLatLon0.03_PT036H.grib2 2026-04-28 06:17 904K
20260428T00Z_MSC_CAPS_GeopotentialHeight_IsbL-0900_RLatLon0.03_PT036H.grib2 2026-04-28 06:17 913K
20260428T00Z_MSC_CAPS_GeopotentialHeight_IsbL-0925_RLatLon0.03_PT036H.grib2 2026-04-28 06:17 922K
20260428T00Z_MSC_CAPS_GeopotentialHeight_IsbL-0950_RLatLon0.03_PT036H.grib2 2026-04-28 06:17 934K
20260428T00Z_MSC_CAPS_GeopotentialHeight_IsbL-0970_RLatLon0.03_PT036H.grib2 2026-04-28 06:17 947K
20260428T00Z_MSC_CAPS_GeopotentialHeight_IsbL-0985_RLatLon0.03_PT036H.grib2 2026-04-28 06:17 956K
20260428T00Z_MSC_CAPS_GeopotentialHeight_IsbL-1000_RLatLon0.03_PT036H.grib2 2026-04-28 06:17 966K
20260428T00Z_MSC_CAPS_GeopotentialHeight_IsbL-1015_RLatLon0.03_PT036H.grib2 2026-04-28 06:17 1.0M
20260428T00Z_MSC_CAPS_GeopotentialHeight_Sfc_RLatLon0.03_PT036H.grib2 2026-04-28 06:17 1.0M
20260428T00Z_MSC_CAPS_IcePellets-Accum_Sfc_RLatLon0.03_PT036H.grib2 2026-04-28 06:17 84K
20260428T00Z_MSC_CAPS_LatentHeatNetFlux_Sfc_RLatLon0.03_PT036H.grib2 2026-04-28 06:17 2.1M
20260428T00Z_MSC_CAPS_LiftedIndex-MU-VT_IsbL-0500_RLatLon0.03_PT036H.grib2 2026-04-28 06:17 3.3M
20260428T00Z_MSC_CAPS_MixedLayerThickness_Sfc_RLatLon0.03_PT036H.nc 2026-04-28 06:12 17M
20260428T00Z_MSC_CAPS_NetLongwaveRadiationFlux-Accum_Sfc_RLatLon0.03_PT036H.grib2 2026-04-28 06:17 2.8M
20260428T00Z_MSC_CAPS_NetShortwaveRadiationFlux-Accum_Sfc_RLatLon0.03_PT036H.grib2 2026-04-28 06:17 2.8M
20260428T00Z_MSC_CAPS_PlanetaryBoundaryLayerHeight_Sfc_RLatLon0.03_PT036H.grib2 2026-04-28 06:17 2.7M
20260428T00Z_MSC_CAPS_Precip-Accum_Sfc_RLatLon0.03_PT036H.grib2 2026-04-28 06:17 5.1M
20260428T00Z_MSC_CAPS_PrecipRate_Sfc_RLatLon0.03_PT036H.grib2 2026-04-28 06:17 588K
20260428T00Z_MSC_CAPS_PrecipType-Instant_Sfc_RLatLon0.03_PT036H.grib2 2026-04-28 06:17 1.9M
20260428T00Z_MSC_CAPS_Pressure_MSL_RLatLon0.03_PT036H.grib2 2026-04-28 06:17 771K
20260428T00Z_MSC_CAPS_Pressure_Sfc_RLatLon0.03_PT036H.grib2 2026-04-28 06:17 1.2M
20260428T00Z_MSC_CAPS_RadiativeTemp_Sfc_RLatLon0.03_PT036H.grib2 2026-04-28 06:17 2.1M
20260428T00Z_MSC_CAPS_Rain-Accum_Sfc_RLatLon0.03_PT036H.grib2 2026-04-28 06:17 2.1M
20260428T00Z_MSC_CAPS_RelativeHumidity_AGL-120m_RLatLon0.03_PT036H.grib2 2026-04-28 06:17 2.8M
20260428T00Z_MSC_CAPS_RelativeHumidity_AGL-2m_RLatLon0.03_PT036H.grib2 2026-04-28 06:17 2.9M
20260428T00Z_MSC_CAPS_RelativeHumidity_AGL-40m_RLatLon0.03_PT036H.grib2 2026-04-28 06:17 2.9M
20260428T00Z_MSC_CAPS_RelativeHumidity_AGL-80m_RLatLon0.03_PT036H.grib2 2026-04-28 06:17 2.8M
20260428T00Z_MSC_CAPS_RelativeHumidity_IsbL-0050_RLatLon0.03_PT036H.grib2 2026-04-28 06:17 1.0M
20260428T00Z_MSC_CAPS_RelativeHumidity_IsbL-0100_RLatLon0.03_PT036H.grib2 2026-04-28 06:17 910K
20260428T00Z_MSC_CAPS_RelativeHumidity_IsbL-0150_RLatLon0.03_PT036H.grib2 2026-04-28 06:17 785K
20260428T00Z_MSC_CAPS_RelativeHumidity_IsbL-0175_RLatLon0.03_PT036H.grib2 2026-04-28 06:17 517K
20260428T00Z_MSC_CAPS_RelativeHumidity_IsbL-0200_RLatLon0.03_PT036H.grib2 2026-04-28 06:17 691K
20260428T00Z_MSC_CAPS_RelativeHumidity_IsbL-0225_RLatLon0.03_PT036H.grib2 2026-04-28 06:17 910K
20260428T00Z_MSC_CAPS_RelativeHumidity_IsbL-0250_RLatLon0.03_PT036H.grib2 2026-04-28 06:17 1.1M
20260428T00Z_MSC_CAPS_RelativeHumidity_IsbL-0275_RLatLon0.03_PT036H.grib2 2026-04-28 06:17 1.4M
20260428T00Z_MSC_CAPS_RelativeHumidity_IsbL-0300_RLatLon0.03_PT036H.grib2 2026-04-28 06:17 1.6M
20260428T00Z_MSC_CAPS_RelativeHumidity_IsbL-0350_RLatLon0.03_PT036H.grib2 2026-04-28 06:17 1.8M
20260428T00Z_MSC_CAPS_RelativeHumidity_IsbL-0400_RLatLon0.03_PT036H.grib2 2026-04-28 06:17 1.9M
20260428T00Z_MSC_CAPS_RelativeHumidity_IsbL-0450_RLatLon0.03_PT036H.grib2 2026-04-28 06:17 2.0M
20260428T00Z_MSC_CAPS_RelativeHumidity_IsbL-0500_RLatLon0.03_PT036H.grib2 2026-04-28 06:17 2.2M
20260428T00Z_MSC_CAPS_RelativeHumidity_IsbL-0550_RLatLon0.03_PT036H.grib2 2026-04-28 06:17 2.2M
20260428T00Z_MSC_CAPS_RelativeHumidity_IsbL-0600_RLatLon0.03_PT036H.grib2 2026-04-28 06:17 2.2M
20260428T00Z_MSC_CAPS_RelativeHumidity_IsbL-0650_RLatLon0.03_PT036H.grib2 2026-04-28 06:17 2.2M
20260428T00Z_MSC_CAPS_RelativeHumidity_IsbL-0700_RLatLon0.03_PT036H.grib2 2026-04-28 06:17 2.3M
20260428T00Z_MSC_CAPS_RelativeHumidity_IsbL-0750_RLatLon0.03_PT036H.grib2 2026-04-28 06:17 2.4M
20260428T00Z_MSC_CAPS_RelativeHumidity_IsbL-0800_RLatLon0.03_PT036H.grib2 2026-04-28 06:17 2.4M
20260428T00Z_MSC_CAPS_RelativeHumidity_IsbL-0850_RLatLon0.03_PT036H.grib2 2026-04-28 06:17 2.5M
20260428T00Z_MSC_CAPS_RelativeHumidity_IsbL-0875_RLatLon0.03_PT036H.grib2 2026-04-28 06:17 2.5M
20260428T00Z_MSC_CAPS_RelativeHumidity_IsbL-0900_RLatLon0.03_PT036H.grib2 2026-04-28 06:17 2.5M
20260428T00Z_MSC_CAPS_RelativeHumidity_IsbL-0925_RLatLon0.03_PT036H.grib2 2026-04-28 06:17 2.6M
20260428T00Z_MSC_CAPS_RelativeHumidity_IsbL-0950_RLatLon0.03_PT036H.grib2 2026-04-28 06:17 2.7M
20260428T00Z_MSC_CAPS_RelativeHumidity_IsbL-0970_RLatLon0.03_PT036H.grib2 2026-04-28 06:17 2.8M
20260428T00Z_MSC_CAPS_RelativeHumidity_IsbL-0985_RLatLon0.03_PT036H.grib2 2026-04-28 06:17 2.8M
20260428T00Z_MSC_CAPS_RelativeHumidity_IsbL-1000_RLatLon0.03_PT036H.grib2 2026-04-28 06:17 2.9M
20260428T00Z_MSC_CAPS_RelativeHumidity_IsbL-1015_RLatLon0.03_PT036H.grib2 2026-04-28 06:17 3.0M
20260428T00Z_MSC_CAPS_Runoff-Accum_Sfc_RLatLon0.03_PT036H.grib2 2026-04-28 06:17 299K
20260428T00Z_MSC_CAPS_SeaIceAreaFraction_Sfc_RLatLon0.03_PT036H.nc 2026-04-28 06:12 15M
20260428T00Z_MSC_CAPS_SeaIceCompressiveStrength_Sfc_RLatLon0.03_PT036H.nc 2026-04-28 06:12 15M
20260428T00Z_MSC_CAPS_SeaIceDivergence_Sfc_RLatLon0.03_PT036H.nc 2026-04-28 06:12 15M
20260428T00Z_MSC_CAPS_SeaIceInternalPressure_Sfc_RLatLon0.03_PT036H.nc 2026-04-28 06:12 15M
20260428T00Z_MSC_CAPS_SeaIceShear_Sfc_RLatLon0.03_PT036H.nc 2026-04-28 06:12 14M
20260428T00Z_MSC_CAPS_SeaIceSnowTemp_Sfc_RLatLon0.03_PT036H.nc 2026-04-28 06:12 15M
20260428T00Z_MSC_CAPS_SeaIceSnowVolume_Sfc_RLatLon0.03_PT036H.nc 2026-04-28 06:12 15M
20260428T00Z_MSC_CAPS_SeaIceVelocityX_Sfc_RLatLon0.03_PT036H.nc 2026-04-28 06:12 15M
20260428T00Z_MSC_CAPS_SeaIceVelocityY_Sfc_RLatLon0.03_PT036H.nc 2026-04-28 06:12 15M
20260428T00Z_MSC_CAPS_SeaIceVolume_Sfc_RLatLon0.03_PT036H.nc 2026-04-28 06:12 15M
20260428T00Z_MSC_CAPS_SeaSurfaceHeight_Sfc_RLatLon0.03_PT036H.nc 2026-04-28 06:12 16M
20260428T00Z_MSC_CAPS_SeaWaterSalinity_DBS-0.5m_RLatLon0.03_PT036H.nc 2026-04-28 06:12 16M
20260428T00Z_MSC_CAPS_SeaWaterSalinity_DBS-all_RLatLon0.03_PT036H.nc 2026-04-28 06:12 107M
20260428T00Z_MSC_CAPS_SeaWaterTemp_DBS-0.5m_RLatLon0.03_PT036H.nc 2026-04-28 06:12 14M
20260428T00Z_MSC_CAPS_SeaWaterTemp_DBS-all_RLatLon0.03_PT036H.nc 2026-04-28 06:12 87M
20260428T00Z_MSC_CAPS_SeaWaterVelocityX_DBS-0.5m_RLatLon0.03_PT036H.nc 2026-04-28 06:12 17M
20260428T00Z_MSC_CAPS_SeaWaterVelocityX_DBS-all_RLatLon0.03_PT036H.nc 2026-04-28 06:12 209M
20260428T00Z_MSC_CAPS_SeaWaterVelocityY_DBS-0.5m_RLatLon0.03_PT036H.nc 2026-04-28 06:12 17M
20260428T00Z_MSC_CAPS_SeaWaterVelocityY_DBS-all_RLatLon0.03_PT036H.nc 2026-04-28 06:12 213M
20260428T00Z_MSC_CAPS_SensibleHeatNetFlux_Sfc_RLatLon0.03_PT036H.grib2 2026-04-28 06:17 2.0M
20260428T00Z_MSC_CAPS_ShowalterIndex_IsbL-0500_RLatLon0.03_PT036H.grib2 2026-04-28 06:17 4.3M
20260428T00Z_MSC_CAPS_Snow-Accum_Sfc_RLatLon0.03_PT036H.grib2 2026-04-28 06:17 4.2M
20260428T00Z_MSC_CAPS_SnowDensity_Sfc_RLatLon0.03_PT036H.grib2 2026-04-28 06:17 1.3M
20260428T00Z_MSC_CAPS_SnowDepthWaterEquivalent_Sfc_RLatLon0.03_PT036H.grib2 2026-04-28 06:17 720K
20260428T00Z_MSC_CAPS_SnowDepth_Sfc_RLatLon0.03_PT036H.grib2 2026-04-28 06:17 1.2M
20260428T00Z_MSC_CAPS_SoilTemp_DBS-0to10cm_RLatLon0.03_PT036H.grib2 2026-04-28 06:17 1.7M
20260428T00Z_MSC_CAPS_SoilTemp_Sfc_RLatLon0.03_PT036H.grib2 2026-04-28 06:17 1.9M
20260428T00Z_MSC_CAPS_SoilVolumetricIceContent_Sfc_RLatLon0.03_PT036H.grib2 2026-04-28 06:17 1.5M
20260428T00Z_MSC_CAPS_SoilVolumetricWaterContent_DBS-0to10cm_RLatLon0.03_PT036H.grib2 2026-04-28 06:17 1.2M
20260428T00Z_MSC_CAPS_SoilVolumetricWaterContent_DBS-0to1cm_RLatLon0.03_PT036H.grib2 2026-04-28 06:17 1.7M
20260428T00Z_MSC_CAPS_SpecificHumidity_AGL-120m_RLatLon0.03_PT036H.grib2 2026-04-28 06:17 1.8M
20260428T00Z_MSC_CAPS_SpecificHumidity_AGL-2m_RLatLon0.03_PT036H.grib2 2026-04-28 06:17 2.1M
20260428T00Z_MSC_CAPS_SpecificHumidity_AGL-40m_RLatLon0.03_PT036H.grib2 2026-04-28 06:17 1.8M
20260428T00Z_MSC_CAPS_SpecificHumidity_AGL-80m_RLatLon0.03_PT036H.grib2 2026-04-28 06:17 1.8M
20260428T00Z_MSC_CAPS_SpecificHumidity_IsbL-0050_RLatLon0.03_PT036H.grib2 2026-04-28 06:17 923K
20260428T00Z_MSC_CAPS_SpecificHumidity_IsbL-0100_RLatLon0.03_PT036H.grib2 2026-04-28 06:17 1.1M
20260428T00Z_MSC_CAPS_SpecificHumidity_IsbL-0150_RLatLon0.03_PT036H.grib2 2026-04-28 06:17 1.0M
20260428T00Z_MSC_CAPS_SpecificHumidity_IsbL-0175_RLatLon0.03_PT036H.grib2 2026-04-28 06:17 762K
20260428T00Z_MSC_CAPS_SpecificHumidity_IsbL-0200_RLatLon0.03_PT036H.grib2 2026-04-28 06:17 888K
20260428T00Z_MSC_CAPS_SpecificHumidity_IsbL-0225_RLatLon0.03_PT036H.grib2 2026-04-28 06:17 1.1M
20260428T00Z_MSC_CAPS_SpecificHumidity_IsbL-0250_RLatLon0.03_PT036H.grib2 2026-04-28 06:17 1.1M
20260428T00Z_MSC_CAPS_SpecificHumidity_IsbL-0275_RLatLon0.03_PT036H.grib2 2026-04-28 06:17 1.1M
20260428T00Z_MSC_CAPS_SpecificHumidity_IsbL-0300_RLatLon0.03_PT036H.grib2 2026-04-28 06:17 1.2M
20260428T00Z_MSC_CAPS_SpecificHumidity_IsbL-0350_RLatLon0.03_PT036H.grib2 2026-04-28 06:17 1.2M
20260428T00Z_MSC_CAPS_SpecificHumidity_IsbL-0400_RLatLon0.03_PT036H.grib2 2026-04-28 06:17 1.2M
20260428T00Z_MSC_CAPS_SpecificHumidity_IsbL-0450_RLatLon0.03_PT036H.grib2 2026-04-28 06:17 1.1M
20260428T00Z_MSC_CAPS_SpecificHumidity_IsbL-0500_RLatLon0.03_PT036H.grib2 2026-04-28 06:17 1.1M
20260428T00Z_MSC_CAPS_SpecificHumidity_IsbL-0550_RLatLon0.03_PT036H.grib2 2026-04-28 06:17 1.3M
20260428T00Z_MSC_CAPS_SpecificHumidity_IsbL-0600_RLatLon0.03_PT036H.grib2 2026-04-28 06:17 1.4M
20260428T00Z_MSC_CAPS_SpecificHumidity_IsbL-0650_RLatLon0.03_PT036H.grib2 2026-04-28 06:17 1.5M
20260428T00Z_MSC_CAPS_SpecificHumidity_IsbL-0700_RLatLon0.03_PT036H.grib2 2026-04-28 06:17 1.6M
20260428T00Z_MSC_CAPS_SpecificHumidity_IsbL-0750_RLatLon0.03_PT036H.grib2 2026-04-28 06:17 1.8M
20260428T00Z_MSC_CAPS_SpecificHumidity_IsbL-0800_RLatLon0.03_PT036H.grib2 2026-04-28 06:17 1.5M
20260428T00Z_MSC_CAPS_SpecificHumidity_IsbL-0850_RLatLon0.03_PT036H.grib2 2026-04-28 06:17 1.6M
20260428T00Z_MSC_CAPS_SpecificHumidity_IsbL-0875_RLatLon0.03_PT036H.grib2 2026-04-28 06:17 1.7M
20260428T00Z_MSC_CAPS_SpecificHumidity_IsbL-0900_RLatLon0.03_PT036H.grib2 2026-04-28 06:17 1.7M
20260428T00Z_MSC_CAPS_SpecificHumidity_IsbL-0925_RLatLon0.03_PT036H.grib2 2026-04-28 06:17 1.8M
20260428T00Z_MSC_CAPS_SpecificHumidity_IsbL-0950_RLatLon0.03_PT036H.grib2 2026-04-28 06:17 1.9M
20260428T00Z_MSC_CAPS_SpecificHumidity_IsbL-0970_RLatLon0.03_PT036H.grib2 2026-04-28 06:17 2.0M
20260428T00Z_MSC_CAPS_SpecificHumidity_IsbL-0985_RLatLon0.03_PT036H.grib2 2026-04-28 06:17 2.0M
20260428T00Z_MSC_CAPS_SpecificHumidity_IsbL-1000_RLatLon0.03_PT036H.grib2 2026-04-28 06:17 2.1M
20260428T00Z_MSC_CAPS_SpecificHumidity_IsbL-1015_RLatLon0.03_PT036H.grib2 2026-04-28 06:17 2.1M
20260428T00Z_MSC_CAPS_SpecificHumidity_Sfc_RLatLon0.03_PT036H.grib2 2026-04-28 06:17 2.0M
20260428T00Z_MSC_CAPS_StormRelativeHelicity_Sfc_RLatLon0.03_PT036H.grib2 2026-04-28 06:17 3.2M
20260428T00Z_MSC_CAPS_Thickness_IsbL-1000to0500_RLatLon0.03_PT036H.grib2 2026-04-28 06:17 430K
20260428T00Z_MSC_CAPS_TotalCloudCover_Sfc_RLatLon0.03_PT036H.grib2 2026-04-28 06:17 3.6M
20260428T00Z_MSC_CAPS_TurboclineDepth_Sfc_RLatLon0.03_PT036H.nc 2026-04-28 06:12 16M
20260428T00Z_MSC_CAPS_UpwardLongwaveRadiationFlux_NTAtm_RLatLon0.03_PT036H.grib2 2026-04-28 06:17 2.9M
20260428T00Z_MSC_CAPS_UpwardShortwaveRadiationFlux_NTAtm_RLatLon0.03_PT036H.grib2 2026-04-28 06:17 2.0M
20260428T00Z_MSC_CAPS_VerticalVelocity_IsbL-0250_RLatLon0.03_PT036H.grib2 2026-04-28 06:17 1.0M
20260428T00Z_MSC_CAPS_VerticalVelocity_IsbL-0500_RLatLon0.03_PT036H.grib2 2026-04-28 06:17 1.2M
20260428T00Z_MSC_CAPS_VerticalVelocity_IsbL-0700_RLatLon0.03_PT036H.grib2 2026-04-28 06:17 938K
20260428T00Z_MSC_CAPS_VerticalVelocity_IsbL-0850_RLatLon0.03_PT036H.grib2 2026-04-28 06:17 1.2M
20260428T00Z_MSC_CAPS_VerticalVelocity_IsbL-1000_RLatLon0.03_PT036H.grib2 2026-04-28 06:17 1.2M
20260428T00Z_MSC_CAPS_WindDir_AGL-10m_RLatLon0.03_PT036H.grib2 2026-04-28 06:17 2.4M
20260428T00Z_MSC_CAPS_WindDir_AGL-120m_RLatLon0.03_PT036H.grib2 2026-04-28 06:17 1.2M
20260428T00Z_MSC_CAPS_WindDir_AGL-40m_RLatLon0.03_PT036H.grib2 2026-04-28 06:17 1.4M
20260428T00Z_MSC_CAPS_WindDir_AGL-80m_RLatLon0.03_PT036H.grib2 2026-04-28 06:17 1.3M
20260428T00Z_MSC_CAPS_WindDir_IsbL-0050_RLatLon0.03_PT036H.grib2 2026-04-28 06:17 1.0M
20260428T00Z_MSC_CAPS_WindDir_IsbL-0100_RLatLon0.03_PT036H.grib2 2026-04-28 06:17 1.0M
20260428T00Z_MSC_CAPS_WindDir_IsbL-0150_RLatLon0.03_PT036H.grib2 2026-04-28 06:17 1.0M
20260428T00Z_MSC_CAPS_WindDir_IsbL-0175_RLatLon0.03_PT036H.grib2 2026-04-28 06:17 1.0M
20260428T00Z_MSC_CAPS_WindDir_IsbL-0200_RLatLon0.03_PT036H.grib2 2026-04-28 06:17 1.1M
20260428T00Z_MSC_CAPS_WindDir_IsbL-0225_RLatLon0.03_PT036H.grib2 2026-04-28 06:17 1.1M
20260428T00Z_MSC_CAPS_WindDir_IsbL-0250_RLatLon0.03_PT036H.grib2 2026-04-28 06:17 1.1M
20260428T00Z_MSC_CAPS_WindDir_IsbL-0275_RLatLon0.03_PT036H.grib2 2026-04-28 06:17 1.1M
20260428T00Z_MSC_CAPS_WindDir_IsbL-0300_RLatLon0.03_PT036H.grib2 2026-04-28 06:17 1.1M
20260428T00Z_MSC_CAPS_WindDir_IsbL-0350_RLatLon0.03_PT036H.grib2 2026-04-28 06:17 1.1M
20260428T00Z_MSC_CAPS_WindDir_IsbL-0400_RLatLon0.03_PT036H.grib2 2026-04-28 06:17 1.1M
20260428T00Z_MSC_CAPS_WindDir_IsbL-0450_RLatLon0.03_PT036H.grib2 2026-04-28 06:17 1.2M
20260428T00Z_MSC_CAPS_WindDir_IsbL-0500_RLatLon0.03_PT036H.grib2 2026-04-28 06:17 1.1M
20260428T00Z_MSC_CAPS_WindDir_IsbL-0550_RLatLon0.03_PT036H.grib2 2026-04-28 06:17 1.2M
20260428T00Z_MSC_CAPS_WindDir_IsbL-0600_RLatLon0.03_PT036H.grib2 2026-04-28 06:17 1.3M
20260428T00Z_MSC_CAPS_WindDir_IsbL-0650_RLatLon0.03_PT036H.grib2 2026-04-28 06:17 1.3M
20260428T00Z_MSC_CAPS_WindDir_IsbL-0700_RLatLon0.03_PT036H.grib2 2026-04-28 06:17 1.4M
20260428T00Z_MSC_CAPS_WindDir_IsbL-0750_RLatLon0.03_PT036H.grib2 2026-04-28 06:17 1.5M
20260428T00Z_MSC_CAPS_WindDir_IsbL-0800_RLatLon0.03_PT036H.grib2 2026-04-28 06:17 1.6M
20260428T00Z_MSC_CAPS_WindDir_IsbL-0850_RLatLon0.03_PT036H.grib2 2026-04-28 06:17 1.7M
20260428T00Z_MSC_CAPS_WindDir_IsbL-0875_RLatLon0.03_PT036H.grib2 2026-04-28 06:17 1.9M
20260428T00Z_MSC_CAPS_WindDir_IsbL-0900_RLatLon0.03_PT036H.grib2 2026-04-28 06:17 1.9M
20260428T00Z_MSC_CAPS_WindDir_IsbL-0925_RLatLon0.03_PT036H.grib2 2026-04-28 06:17 2.0M
20260428T00Z_MSC_CAPS_WindDir_IsbL-0950_RLatLon0.03_PT036H.grib2 2026-04-28 06:17 2.1M
20260428T00Z_MSC_CAPS_WindDir_IsbL-0970_RLatLon0.03_PT036H.grib2 2026-04-28 06:17 2.1M
20260428T00Z_MSC_CAPS_WindDir_IsbL-0985_RLatLon0.03_PT036H.grib2 2026-04-28 06:17 2.2M
20260428T00Z_MSC_CAPS_WindDir_IsbL-1000_RLatLon0.03_PT036H.grib2 2026-04-28 06:17 2.3M
20260428T00Z_MSC_CAPS_WindDir_IsbL-1015_RLatLon0.03_PT036H.grib2 2026-04-28 06:17 2.4M
20260428T00Z_MSC_CAPS_WindGust-Max_AGL-10m_RLatLon0.03_PT036H.grib2 2026-04-28 06:17 2.3M
20260428T00Z_MSC_CAPS_WindGust-Min_AGL-10m_RLatLon0.03_PT036H.grib2 2026-04-28 06:17 2.4M
20260428T00Z_MSC_CAPS_WindGust_AGL-10m_RLatLon0.03_PT036H.grib2 2026-04-28 06:17 2.5M
20260428T00Z_MSC_CAPS_WindSpeed_AGL-10m_RLatLon0.03_PT036H.grib2 2026-04-28 06:17 2.1M
20260428T00Z_MSC_CAPS_WindSpeed_AGL-120m_RLatLon0.03_PT036H.grib2 2026-04-28 06:17 1.2M
20260428T00Z_MSC_CAPS_WindSpeed_AGL-40m_RLatLon0.03_PT036H.grib2 2026-04-28 06:17 1.3M
20260428T00Z_MSC_CAPS_WindSpeed_AGL-80m_RLatLon0.03_PT036H.grib2 2026-04-28 06:17 1.2M
20260428T00Z_MSC_CAPS_WindSpeed_IsbL-0050_RLatLon0.03_PT036H.grib2 2026-04-28 06:17 1.0M
20260428T00Z_MSC_CAPS_WindSpeed_IsbL-0100_RLatLon0.03_PT036H.grib2 2026-04-28 06:17 1.0M
20260428T00Z_MSC_CAPS_WindSpeed_IsbL-0150_RLatLon0.03_PT036H.grib2 2026-04-28 06:17 1.1M
20260428T00Z_MSC_CAPS_WindSpeed_IsbL-0175_RLatLon0.03_PT036H.grib2 2026-04-28 06:17 1.1M
20260428T00Z_MSC_CAPS_WindSpeed_IsbL-0200_RLatLon0.03_PT036H.grib2 2026-04-28 06:17 1.2M
20260428T00Z_MSC_CAPS_WindSpeed_IsbL-0225_RLatLon0.03_PT036H.grib2 2026-04-28 06:17 950K
20260428T00Z_MSC_CAPS_WindSpeed_IsbL-0250_RLatLon0.03_PT036H.grib2 2026-04-28 06:17 965K
20260428T00Z_MSC_CAPS_WindSpeed_IsbL-0275_RLatLon0.03_PT036H.grib2 2026-04-28 06:17 972K
20260428T00Z_MSC_CAPS_WindSpeed_IsbL-0300_RLatLon0.03_PT036H.grib2 2026-04-28 06:17 1.0M
20260428T00Z_MSC_CAPS_WindSpeed_IsbL-0350_RLatLon0.03_PT036H.grib2 2026-04-28 06:17 1.0M
20260428T00Z_MSC_CAPS_WindSpeed_IsbL-0400_RLatLon0.03_PT036H.grib2 2026-04-28 06:17 1.0M
20260428T00Z_MSC_CAPS_WindSpeed_IsbL-0450_RLatLon0.03_PT036H.grib2 2026-04-28 06:17 1.0M
20260428T00Z_MSC_CAPS_WindSpeed_IsbL-0500_RLatLon0.03_PT036H.grib2 2026-04-28 06:17 1.2M
20260428T00Z_MSC_CAPS_WindSpeed_IsbL-0550_RLatLon0.03_PT036H.grib2 2026-04-28 06:17 1.3M
20260428T00Z_MSC_CAPS_WindSpeed_IsbL-0600_RLatLon0.03_PT036H.grib2 2026-04-28 06:17 1.4M
20260428T00Z_MSC_CAPS_WindSpeed_IsbL-0650_RLatLon0.03_PT036H.grib2 2026-04-28 06:17 1.4M
20260428T00Z_MSC_CAPS_WindSpeed_IsbL-0700_RLatLon0.03_PT036H.grib2 2026-04-28 06:17 1.5M
20260428T00Z_MSC_CAPS_WindSpeed_IsbL-0750_RLatLon0.03_PT036H.grib2 2026-04-28 06:17 1.5M
20260428T00Z_MSC_CAPS_WindSpeed_IsbL-0800_RLatLon0.03_PT036H.grib2 2026-04-28 06:17 1.6M
20260428T00Z_MSC_CAPS_WindSpeed_IsbL-0850_RLatLon0.03_PT036H.grib2 2026-04-28 06:17 1.7M
20260428T00Z_MSC_CAPS_WindSpeed_IsbL-0875_RLatLon0.03_PT036H.grib2 2026-04-28 06:17 1.8M
20260428T00Z_MSC_CAPS_WindSpeed_IsbL-0900_RLatLon0.03_PT036H.grib2 2026-04-28 06:17 1.9M
20260428T00Z_MSC_CAPS_WindSpeed_IsbL-0925_RLatLon0.03_PT036H.grib2 2026-04-28 06:17 1.9M
20260428T00Z_MSC_CAPS_WindSpeed_IsbL-0950_RLatLon0.03_PT036H.grib2 2026-04-28 06:17 2.0M
20260428T00Z_MSC_CAPS_WindSpeed_IsbL-0970_RLatLon0.03_PT036H.grib2 2026-04-28 06:17 2.0M
20260428T00Z_MSC_CAPS_WindSpeed_IsbL-0985_RLatLon0.03_PT036H.grib2 2026-04-28 06:17 2.0M
20260428T00Z_MSC_CAPS_WindSpeed_IsbL-1000_RLatLon0.03_PT036H.grib2 2026-04-28 06:17 2.0M
20260428T00Z_MSC_CAPS_WindSpeed_IsbL-1015_RLatLon0.03_PT036H.grib2 2026-04-28 06:17 2.1M
20260428T00Z_MSC_CAPS_WindU_AGL-10m_RLatLon0.03_PT036H.grib2 2026-04-28 06:17 1.5M
20260428T00Z_MSC_CAPS_WindU_AGL-120m_RLatLon0.03_PT036H.grib2 2026-04-28 06:17 905K
20260428T00Z_MSC_CAPS_WindU_AGL-40m_RLatLon0.03_PT036H.grib2 2026-04-28 06:17 938K
20260428T00Z_MSC_CAPS_WindU_AGL-80m_RLatLon0.03_PT036H.grib2 2026-04-28 06:17 908K
20260428T00Z_MSC_CAPS_WindU_IsbL-0050_RLatLon0.03_PT036H.grib2 2026-04-28 06:17 935K
20260428T00Z_MSC_CAPS_WindU_IsbL-0100_RLatLon0.03_PT036H.grib2 2026-04-28 06:17 1.0M
20260428T00Z_MSC_CAPS_WindU_IsbL-0150_RLatLon0.03_PT036H.grib2 2026-04-28 06:17 713K
20260428T00Z_MSC_CAPS_WindU_IsbL-0175_RLatLon0.03_PT036H.grib2 2026-04-28 06:17 729K
20260428T00Z_MSC_CAPS_WindU_IsbL-0200_RLatLon0.03_PT036H.grib2 2026-04-28 06:17 872K
20260428T00Z_MSC_CAPS_WindU_IsbL-0225_RLatLon0.03_PT036H.grib2 2026-04-28 06:17 889K
20260428T00Z_MSC_CAPS_WindU_IsbL-0250_RLatLon0.03_PT036H.grib2 2026-04-28 06:17 910K
20260428T00Z_MSC_CAPS_WindU_IsbL-0275_RLatLon0.03_PT036H.grib2 2026-04-28 06:17 914K
20260428T00Z_MSC_CAPS_WindU_IsbL-0300_RLatLon0.03_PT036H.grib2 2026-04-28 06:17 920K
20260428T00Z_MSC_CAPS_WindU_IsbL-0350_RLatLon0.03_PT036H.grib2 2026-04-28 06:17 939K
20260428T00Z_MSC_CAPS_WindU_IsbL-0400_RLatLon0.03_PT036H.grib2 2026-04-28 06:17 945K
20260428T00Z_MSC_CAPS_WindU_IsbL-0450_RLatLon0.03_PT036H.grib2 2026-04-28 06:17 961K
20260428T00Z_MSC_CAPS_WindU_IsbL-0500_RLatLon0.03_PT036H.grib2 2026-04-28 06:17 873K
20260428T00Z_MSC_CAPS_WindU_IsbL-0550_RLatLon0.03_PT036H.grib2 2026-04-28 06:17 912K
20260428T00Z_MSC_CAPS_WindU_IsbL-0600_RLatLon0.03_PT036H.grib2 2026-04-28 06:17 935K
20260428T00Z_MSC_CAPS_WindU_IsbL-0650_RLatLon0.03_PT036H.grib2 2026-04-28 06:17 1.2M
20260428T00Z_MSC_CAPS_WindU_IsbL-0700_RLatLon0.03_PT036H.grib2 2026-04-28 06:17 1.0M
20260428T00Z_MSC_CAPS_WindU_IsbL-0750_RLatLon0.03_PT036H.grib2 2026-04-28 06:17 1.0M
20260428T00Z_MSC_CAPS_WindU_IsbL-0800_RLatLon0.03_PT036H.grib2 2026-04-28 06:17 1.1M
20260428T00Z_MSC_CAPS_WindU_IsbL-0850_RLatLon0.03_PT036H.grib2 2026-04-28 06:17 1.2M
20260428T00Z_MSC_CAPS_WindU_IsbL-0875_RLatLon0.03_PT036H.grib2 2026-04-28 06:17 1.3M
20260428T00Z_MSC_CAPS_WindU_IsbL-0900_RLatLon0.03_PT036H.grib2 2026-04-28 06:17 1.3M
20260428T00Z_MSC_CAPS_WindU_IsbL-0925_RLatLon0.03_PT036H.grib2 2026-04-28 06:17 1.4M
20260428T00Z_MSC_CAPS_WindU_IsbL-0950_RLatLon0.03_PT036H.grib2 2026-04-28 06:17 1.4M
20260428T00Z_MSC_CAPS_WindU_IsbL-0970_RLatLon0.03_PT036H.grib2 2026-04-28 06:17 1.4M
20260428T00Z_MSC_CAPS_WindU_IsbL-0985_RLatLon0.03_PT036H.grib2 2026-04-28 06:17 1.4M
20260428T00Z_MSC_CAPS_WindU_IsbL-1000_RLatLon0.03_PT036H.grib2 2026-04-28 06:17 1.4M
20260428T00Z_MSC_CAPS_WindU_IsbL-1015_RLatLon0.03_PT036H.grib2 2026-04-28 06:17 1.5M
20260428T00Z_MSC_CAPS_WindV_AGL-10m_RLatLon0.03_PT036H.grib2 2026-04-28 06:17 2.0M
20260428T00Z_MSC_CAPS_WindV_AGL-120m_RLatLon0.03_PT036H.grib2 2026-04-28 06:17 1.2M
20260428T00Z_MSC_CAPS_WindV_AGL-40m_RLatLon0.03_PT036H.grib2 2026-04-28 06:17 1.2M
20260428T00Z_MSC_CAPS_WindV_AGL-80m_RLatLon0.03_PT036H.grib2 2026-04-28 06:17 1.2M
20260428T00Z_MSC_CAPS_WindV_IsbL-0050_RLatLon0.03_PT036H.grib2 2026-04-28 06:17 937K
20260428T00Z_MSC_CAPS_WindV_IsbL-0100_RLatLon0.03_PT036H.grib2 2026-04-28 06:17 802K
20260428T00Z_MSC_CAPS_WindV_IsbL-0150_RLatLon0.03_PT036H.grib2 2026-04-28 06:17 920K
20260428T00Z_MSC_CAPS_WindV_IsbL-0175_RLatLon0.03_PT036H.grib2 2026-04-28 06:17 727K
20260428T00Z_MSC_CAPS_WindV_IsbL-0200_RLatLon0.03_PT036H.grib2 2026-04-28 06:17 868K
20260428T00Z_MSC_CAPS_WindV_IsbL-0225_RLatLon0.03_PT036H.grib2 2026-04-28 06:17 888K
20260428T00Z_MSC_CAPS_WindV_IsbL-0250_RLatLon0.03_PT036H.grib2 2026-04-28 06:17 906K
20260428T00Z_MSC_CAPS_WindV_IsbL-0275_RLatLon0.03_PT036H.grib2 2026-04-28 06:17 913K
20260428T00Z_MSC_CAPS_WindV_IsbL-0300_RLatLon0.03_PT036H.grib2 2026-04-28 06:17 922K
20260428T00Z_MSC_CAPS_WindV_IsbL-0350_RLatLon0.03_PT036H.grib2 2026-04-28 06:17 939K
20260428T00Z_MSC_CAPS_WindV_IsbL-0400_RLatLon0.03_PT036H.grib2 2026-04-28 06:17 946K
20260428T00Z_MSC_CAPS_WindV_IsbL-0450_RLatLon0.03_PT036H.grib2 2026-04-28 06:17 963K
20260428T00Z_MSC_CAPS_WindV_IsbL-0500_RLatLon0.03_PT036H.grib2 2026-04-28 06:17 875K
20260428T00Z_MSC_CAPS_WindV_IsbL-0550_RLatLon0.03_PT036H.grib2 2026-04-28 06:17 912K
20260428T00Z_MSC_CAPS_WindV_IsbL-0600_RLatLon0.03_PT036H.grib2 2026-04-28 06:17 936K
20260428T00Z_MSC_CAPS_WindV_IsbL-0650_RLatLon0.03_PT036H.grib2 2026-04-28 06:17 1.2M
20260428T00Z_MSC_CAPS_WindV_IsbL-0700_RLatLon0.03_PT036H.grib2 2026-04-28 06:17 1.3M
20260428T00Z_MSC_CAPS_WindV_IsbL-0750_RLatLon0.03_PT036H.grib2 2026-04-28 06:17 1.3M
20260428T00Z_MSC_CAPS_WindV_IsbL-0800_RLatLon0.03_PT036H.grib2 2026-04-28 06:17 1.4M
20260428T00Z_MSC_CAPS_WindV_IsbL-0850_RLatLon0.03_PT036H.grib2 2026-04-28 06:17 1.5M
20260428T00Z_MSC_CAPS_WindV_IsbL-0875_RLatLon0.03_PT036H.grib2 2026-04-28 06:17 1.5M
20260428T00Z_MSC_CAPS_WindV_IsbL-0900_RLatLon0.03_PT036H.grib2 2026-04-28 06:17 1.6M
20260428T00Z_MSC_CAPS_WindV_IsbL-0925_RLatLon0.03_PT036H.grib2 2026-04-28 06:17 1.6M
20260428T00Z_MSC_CAPS_WindV_IsbL-0950_RLatLon0.03_PT036H.grib2 2026-04-28 06:17 1.7M
20260428T00Z_MSC_CAPS_WindV_IsbL-0970_RLatLon0.03_PT036H.grib2 2026-04-28 06:17 1.7M
20260428T00Z_MSC_CAPS_WindV_IsbL-0985_RLatLon0.03_PT036H.grib2 2026-04-28 06:17 1.8M
20260428T00Z_MSC_CAPS_WindV_IsbL-1000_RLatLon0.03_PT036H.grib2 2026-04-28 06:17 1.9M
20260428T00Z_MSC_CAPS_WindV_IsbL-1015_RLatLon0.03_PT036H.grib2 2026-04-28 06:17 2.0M